UAL1654 SUMU-LEMD

Flight info

Callsign UAL1654
Flight time N/A
Altitude 39000
Route MOLBI UM540 ANISE UZ23 DAMTA VUMEV UZ14 AMBET UN857 FNR UB623 CVS UN873 IPERA N873 GDV N858 VASTO UN858 PESAS N858 PARKA Z165 SOTUK SOTU4C
Aircraft B78X/H-V/N

Departure

Time 2026-05-06 05:25
Airport Carrasco General Cesáreo L. Berisso International Airport (SUMU)

Arrival

Time N/A
Airport Adolfo Suárez Madrid–Barajas Airport (LEMD)
Time Latitude Longitude Altitude Speed Heading
2026-05-06 05:00 -34.83631 -56.01795 123 ft 0 kts 145°
2026-05-06 05:16 -34.83629 -56.01797 123 ft 1 kts 145°
2026-05-06 05:16 -34.83621 -56.01803 123 ft 2 kts 145°
2026-05-06 05:17 -34.83607 -56.01818 123 ft 3 kts 129°
2026-05-06 05:17 -34.83597 -56.01839 123 ft 3 kts 109°
2026-05-06 05:17 -34.83593 -56.01863 123 ft 3 kts 88°
2026-05-06 05:17 -34.83597 -56.01888 123 ft 3 kts 69°
2026-05-06 05:18 -34.83607 -56.01910 123 ft 3 kts 55°
2026-05-06 05:18 -34.83610 -56.01914 123 ft 0 kts 55°
2026-05-06 05:19 -34.83602 -56.01902 123 ft 4 kts 52°
2026-05-06 05:19 -34.83576 -56.01871 123 ft 6 kts 39°
2026-05-06 05:19 -34.83544 -56.01835 123 ft 7 kts 50°
2026-05-06 05:19 -34.83512 -56.01783 123 ft 8 kts 54°
2026-05-06 05:20 -34.83478 -56.01743 123 ft 4 kts 15°
2026-05-06 05:20 -34.83455 -56.01751 123 ft 4 kts 333°
2026-05-06 05:20 -34.83426 -56.01770 123 ft 5 kts 327°
2026-05-06 05:20 -34.83391 -56.01800 123 ft 8 kts 324°
2026-05-06 05:21 -34.83340 -56.01843 123 ft 8 kts 332°
2026-05-06 05:21 -34.83293 -56.01820 123 ft 9 kts 41°
2026-05-06 05:21 -34.83247 -56.01758 123 ft 11 kts 52°
2026-05-06 05:21 -34.83193 -56.01671 123 ft 14 kts 53°
2026-05-06 05:22 -34.83131 -56.01568 123 ft 16 kts 54°
2026-05-06 05:22 -34.83064 -56.01456 123 ft 16 kts 54°
2026-05-06 05:22 -34.82997 -56.01345 123 ft 16 kts 54°
2026-05-06 05:22 -34.82930 -56.01236 123 ft 16 kts 53°
2026-05-06 05:23 -34.82859 -56.01144 123 ft 14 kts 21°
2026-05-06 05:23 -34.82778 -56.01141 123 ft 10 kts 354°
2026-05-06 05:23 -34.82704 -56.01203 123 ft 3 kts 264°
2026-05-06 05:24 -34.82710 -56.01218 123 ft 0 kts 236°
2026-05-06 05:24 -34.82711 -56.01219 123 ft 2 kts 236°
2026-05-06 05:25 -34.82828 -56.01417 123 ft 60 kts 233°
2026-05-06 05:25 -34.83212 -56.02045 123 ft 127 kts 233°
2026-05-06 05:25 -34.83884 -56.03149 163 ft 192 kts 233°
2026-05-06 05:25 -34.84764 -56.04568 790 ft 227 kts 234°
2026-05-06 05:26 -34.85452 -56.06452 1609 ft 268 kts 253°
2026-05-06 05:26 -34.85456 -56.08896 2187 ft 315 kts 277°
2026-05-06 05:26 -34.84584 -56.11396 2917 ft 316 kts 301°
2026-05-06 05:26 -34.83048 -56.13158 3488 ft 298 kts 325°
2026-05-06 05:27 -34.81080 -56.13989 4139 ft 310 kts 350°
2026-05-06 05:27 -34.78930 -56.13647 4723 ft 319 kts 16°
2026-05-06 05:27 -34.77108 -56.12107 5308 ft 321 kts 44°
2026-05-06 05:27 -34.76034 -56.09706 5739 ft 341 kts 67°
2026-05-06 05:28 -34.75593 -56.06907 6466 ft 326 kts 79°
2026-05-06 05:28 -34.75178 -56.04204 7516 ft 327 kts 78°
2026-05-06 05:28 -34.74667 -56.01437 8341 ft 344 kts 76°
2026-05-06 05:28 -34.74037 -55.98639 9033 ft 339 kts 73°
2026-05-06 05:29 -34.73224 -55.95997 9774 ft 338 kts 66°
2026-05-06 05:29 -34.72149 -55.93403 10524 ft 349 kts 59°
2026-05-06 05:29 -34.70849 -55.90897 11280 ft 348 kts 54°
2026-05-06 05:29 -34.69406 -55.88547 12031 ft 348 kts 50°
2026-05-06 05:30 -34.67832 -55.86288 12787 ft 353 kts 46°
2026-05-06 05:30 -34.66151 -55.84095 13542 ft 355 kts 44°
2026-05-06 05:30 -34.64397 -55.81961 14297 ft 358 kts 41°
2026-05-06 05:30 -34.62585 -55.79867 15051 ft 362 kts 40°
2026-05-06 05:31 -34.60721 -55.77789 15805 ft 365 kts 39°
2026-05-06 05:31 -34.58836 -55.75740 16551 ft 369 kts 39°
2026-05-06 05:31 -34.56905 -55.73675 17302 ft 373 kts 38°
2026-05-06 05:31 -34.54938 -55.71595 18005 ft 378 kts 38°
2026-05-06 05:32 -34.52937 -55.69494 18639 ft 383 kts 38°
2026-05-06 05:32 -34.50919 -55.67385 19265 ft 385 kts 38°
2026-05-06 05:32 -34.48860 -55.65236 19898 ft 389 kts 38°
2026-05-06 05:32 -34.46791 -55.63080 20528 ft 393 kts 38°
2026-05-06 05:33 -34.44735 -55.60939 21148 ft 396 kts 38°
2026-05-06 05:33 -34.42635 -55.58753 21776 ft 400 kts 38°
2026-05-06 05:33 -34.40520 -55.56551 22402 ft 403 kts 38°
2026-05-06 05:33 -34.38375 -55.54317 23032 ft 407 kts 38°
2026-05-06 05:34 -34.36222 -55.52075 23659 ft 411 kts 38°
2026-05-06 05:34 -34.34037 -55.49801 24289 ft 414 kts 38°
2026-05-06 05:34 -34.31840 -55.47516 24916 ft 418 kts 38°
2026-05-06 05:34 -34.29626 -55.45216 25543 ft 422 kts 38°
2026-05-06 05:35 -34.27388 -55.42891 26171 ft 426 kts 38°
2026-05-06 05:35 -34.25130 -55.40547 26798 ft 430 kts 38°
2026-05-06 05:35 -34.22852 -55.38183 27425 ft 433 kts 38°
2026-05-06 05:35 -34.20553 -55.35800 28027 ft 438 kts 38°
2026-05-06 05:36 -34.18220 -55.33383 28554 ft 445 kts 38°
2026-05-06 05:36 -34.15872 -55.30953 29058 ft 451 kts 38°
2026-05-06 05:36 -34.13475 -55.28474 29562 ft 456 kts 38°
2026-05-06 05:36 -34.11057 -55.25974 30064 ft 459 kts 38°
2026-05-06 05:37 -34.08620 -55.23456 30567 ft 463 kts 38°
2026-05-06 05:37 -34.06166 -55.20921 31069 ft 466 kts 38°
2026-05-06 05:37 -34.03693 -55.18369 31570 ft 470 kts 38°
2026-05-06 05:37 -34.01199 -55.15797 32071 ft 473 kts 38°
2026-05-06 05:38 -33.98687 -55.13207 32573 ft 477 kts 38°
2026-05-06 05:38 -33.96154 -55.10600 33075 ft 480 kts 38°
2026-05-06 05:38 -33.93634 -55.08008 33570 ft 484 kts 38°
2026-05-06 05:38 -33.91048 -55.05350 33844 ft 493 kts 38°
2026-05-06 05:39 -33.88416 -55.02649 33991 ft 500 kts 38°
2026-05-06 05:39 -33.85767 -54.99932 34121 ft 504 kts 38°
2026-05-06 05:39 -33.83091 -54.97189 34248 ft 507 kts 38°
2026-05-06 05:39 -33.80397 -54.94429 34374 ft 510 kts 38°
2026-05-06 05:40 -33.77719 -54.91687 34498 ft 511 kts 38°
2026-05-06 05:40 -33.74977 -54.88880 34625 ft 511 kts 38°
2026-05-06 05:40 -33.72265 -54.86108 34751 ft 512 kts 38°
2026-05-06 05:40 -33.69549 -54.83332 34876 ft 513 kts 38°
2026-05-06 05:41 -33.66824 -54.80550 35001 ft 514 kts 38°
2026-05-06 05:41 -33.64067 -54.77738 35128 ft 515 kts 38°
2026-05-06 05:41 -33.61344 -54.74964 35253 ft 516 kts 38°
2026-05-06 05:41 -33.58593 -54.72163 35378 ft 517 kts 38°
2026-05-06 05:42 -33.55863 -54.69387 35503 ft 518 kts 38°
2026-05-06 05:42 -33.53112 -54.66592 35628 ft 519 kts 38°
2026-05-06 05:42 -33.50361 -54.63799 35753 ft 520 kts 38°
2026-05-06 05:42 -33.47577 -54.60976 35879 ft 521 kts 38°
2026-05-06 05:43 -33.44802 -54.58164 36005 ft 522 kts 38°
2026-05-06 05:43 -33.42015 -54.55342 36131 ft 523 kts 38°
2026-05-06 05:43 -33.39238 -54.52534 36256 ft 524 kts 38°
2026-05-06 05:43 -33.36439 -54.49705 36382 ft 525 kts 38°
2026-05-06 05:44 -33.33667 -54.46906 36506 ft 526 kts 38°
2026-05-06 05:44 -33.30865 -54.44080 36631 ft 527 kts 38°
2026-05-06 05:44 -33.28047 -54.41240 36757 ft 529 kts 38°
2026-05-06 05:44 -33.25228 -54.38402 36882 ft 530 kts 38°
2026-05-06 05:45 -33.22410 -54.35567 37007 ft 531 kts 38°
2026-05-06 05:45 -33.19565 -54.32707 37133 ft 532 kts 38°
2026-05-06 05:45 -33.16739 -54.29869 37258 ft 533 kts 38°
2026-05-06 05:45 -33.13892 -54.27012 37384 ft 535 kts 38°
2026-05-06 05:46 -33.11030 -54.24143 37509 ft 535 kts 38°
2026-05-06 05:46 -33.08181 -54.21289 37634 ft 532 kts 38°
2026-05-06 05:46 -33.05341 -54.18445 37758 ft 530 kts 38°
2026-05-06 05:46 -33.02510 -54.15613 37883 ft 530 kts 38°
2026-05-06 05:47 -32.99712 -54.12817 38007 ft 531 kts 38°
2026-05-06 05:47 -32.96855 -54.09965 38133 ft 531 kts 38°
2026-05-06 05:47 -32.94052 -54.07169 38256 ft 532 kts 38°
2026-05-06 05:47 -32.91197 -54.04324 38382 ft 533 kts 38°
2026-05-06 05:48 -32.88365 -54.01505 38507 ft 534 kts 38°
2026-05-06 05:48 -32.85497 -53.98653 38633 ft 535 kts 38°
2026-05-06 05:48 -32.82626 -53.95800 38758 ft 535 kts 38°
2026-05-06 05:48 -32.79767 -53.92961 38883 ft 533 kts 38°
2026-05-06 05:49 -32.74076 -53.87316 38997 ft 533 kts 38°
2026-05-06 05:49 -32.68413 -53.81710 39000 ft 532 kts 38°
2026-05-06 05:50 -32.62725 -53.76087 39000 ft 532 kts 38°
2026-05-06 05:50 -32.57006 -53.70445 39000 ft 532 kts 38°
2026-05-06 05:51 -32.51334 -53.64859 39000 ft 531 kts 37°
2026-05-06 05:51 -32.46559 -53.60164 39000 ft 531 kts 37°
2026-05-06 05:52 -32.40910 -53.54617 39000 ft 530 kts 37°
2026-05-06 05:52 -32.35243 -53.49061 38999 ft 523 kts 37°
2026-05-06 05:53 -32.29660 -53.43594 39000 ft 519 kts 37°
2026-05-06 05:53 -32.24089 -53.38151 39000 ft 520 kts 37°
2026-05-06 05:54 -32.18526 -53.32726 39000 ft 520 kts 37°
2026-05-06 05:54 -32.12919 -53.27268 39000 ft 520 kts 37°
2026-05-06 05:55 -32.07352 -53.21858 39000 ft 519 kts 37°
2026-05-06 05:55 -32.01778 -53.16449 39000 ft 519 kts 37°
2026-05-06 05:56 -31.96169 -53.11015 39000 ft 519 kts 37°
2026-05-06 05:56 -31.90610 -53.05638 39000 ft 519 kts 37°
2026-05-06 05:57 -31.85032 -53.00251 39000 ft 519 kts 37°
2026-05-06 05:57 -31.79436 -52.94856 39000 ft 519 kts 37°
2026-05-06 05:58 -31.73843 -52.89472 39000 ft 519 kts 37°
2026-05-06 05:58 -31.68221 -52.84069 39000 ft 519 kts 37°
2026-05-06 05:59 -31.62628 -52.78702 39000 ft 519 kts 37°
2026-05-06 05:59 -31.57051 -52.73358 39000 ft 519 kts 37°
2026-05-06 06:00 -31.51450 -52.68002 39000 ft 519 kts 37°
2026-05-06 06:00 -31.45830 -52.62634 39000 ft 519 kts 37°
2026-05-06 06:01 -31.40235 -52.57300 39000 ft 519 kts 37°
2026-05-06 06:01 -31.34601 -52.51937 39000 ft 519 kts 37°
2026-05-06 06:02 -31.28999 -52.46613 39000 ft 519 kts 37°
2026-05-06 06:02 -31.23406 -52.41306 39000 ft 519 kts 37°
2026-05-06 06:03 -31.17785 -52.35979 39000 ft 519 kts 37°
2026-05-06 06:03 -31.12149 -52.30648 39000 ft 519 kts 37°
2026-05-06 06:04 -31.06550 -52.25361 39000 ft 519 kts 37°
2026-05-06 06:04 -31.00906 -52.20039 39000 ft 519 kts 37°
2026-05-06 06:05 -30.95280 -52.14742 39000 ft 519 kts 37°
2026-05-06 06:05 -30.89869 -52.09655 39000 ft 519 kts 37°
2026-05-06 06:06 -30.84250 -52.04381 39000 ft 519 kts 37°
2026-05-06 06:06 -30.78632 -51.99116 39000 ft 519 kts 37°
2026-05-06 06:07 -30.72999 -51.93845 39000 ft 519 kts 37°
2026-05-06 06:07 -30.67359 -51.88575 39000 ft 519 kts 37°
2026-05-06 06:08 -30.61733 -51.83327 39000 ft 519 kts 37°
2026-05-06 06:08 -30.56081 -51.78063 39000 ft 519 kts 36°
2026-05-06 06:09 -30.50455 -51.72831 39000 ft 519 kts 36°
2026-05-06 06:09 -30.44820 -51.67599 39000 ft 519 kts 36°
2026-05-06 06:10 -30.39140 -51.62332 39000 ft 519 kts 36°
2026-05-06 06:10 -30.33522 -51.57132 39000 ft 519 kts 36°
2026-05-06 06:11 -30.27863 -51.51902 39000 ft 519 kts 36°
2026-05-06 06:11 -30.22194 -51.46669 39000 ft 519 kts 36°
2026-05-06 06:12 -30.16578 -51.41494 39000 ft 519 kts 36°
2026-05-06 06:12 -30.10912 -51.36281 39000 ft 519 kts 36°
2026-05-06 06:13 -30.05268 -51.31096 39000 ft 519 kts 36°
2026-05-06 06:13 -29.99611 -51.25906 39000 ft 519 kts 36°
2026-05-06 06:14 -29.93928 -51.20701 39000 ft 519 kts 36°
2026-05-06 06:14 -29.88261 -51.15517 39000 ft 519 kts 36°
2026-05-06 06:15 -29.82611 -51.10357 39000 ft 519 kts 36°
2026-05-06 06:15 -29.76934 -51.05181 39000 ft 519 kts 36°
2026-05-06 06:16 -29.71286 -51.00038 39000 ft 519 kts 36°
2026-05-06 06:16 -29.65622 -50.94888 39000 ft 519 kts 36°
2026-05-06 06:17 -29.59940 -50.89730 39000 ft 519 kts 36°
2026-05-06 06:17 -29.54272 -50.84592 39000 ft 519 kts 36°
2026-05-06 06:18 -29.48581 -50.79440 39000 ft 519 kts 36°
2026-05-06 06:18 -29.42915 -50.74319 39000 ft 519 kts 36°
2026-05-06 06:19 -29.37234 -50.69192 39000 ft 519 kts 36°
2026-05-06 06:19 -29.31536 -50.64057 39000 ft 519 kts 36°
2026-05-06 06:20 -29.25850 -50.58940 39000 ft 519 kts 36°
2026-05-06 06:20 -29.20161 -50.53828 39000 ft 519 kts 36°
2026-05-06 06:21 -29.15453 -50.49603 39000 ft 519 kts 36°
2026-05-06 06:21 -29.09755 -50.44497 39000 ft 519 kts 36°
2026-05-06 06:22 -29.04073 -50.39412 39000 ft 519 kts 36°
2026-05-06 06:22 -28.98384 -50.34328 39000 ft 519 kts 36°
2026-05-06 06:23 -28.92666 -50.29226 39000 ft 519 kts 36°
2026-05-06 06:23 -28.87004 -50.24180 39000 ft 519 kts 36°
2026-05-06 06:24 -28.81293 -50.19099 39000 ft 519 kts 36°
2026-05-06 06:24 -28.75608 -50.14048 39000 ft 519 kts 36°
2026-05-06 06:25 -28.69884 -50.08969 39000 ft 519 kts 36°
2026-05-06 06:26 -28.61355 -50.01415 39000 ft 519 kts 36°
2026-05-06 06:26 -28.55655 -49.96375 39000 ft 519 kts 36°
2026-05-06 06:27 -28.49930 -49.91321 39000 ft 519 kts 36°
2026-05-06 06:27 -28.44243 -49.86307 39000 ft 519 kts 36°
2026-05-06 06:28 -28.38544 -49.81289 39000 ft 519 kts 36°
2026-05-06 06:28 -28.32823 -49.76260 39000 ft 519 kts 36°
2026-05-06 06:29 -28.27118 -49.71251 39000 ft 519 kts 35°
2026-05-06 06:29 -28.21396 -49.66235 39000 ft 519 kts 35°
2026-05-06 06:30 -28.15650 -49.61204 39000 ft 519 kts 35°
2026-05-06 06:30 -28.09933 -49.56206 39000 ft 519 kts 35°
2026-05-06 06:31 -28.04250 -49.51244 39000 ft 519 kts 35°
2026-05-06 06:31 -27.98527 -49.46254 39000 ft 519 kts 35°
2026-05-06 06:32 -27.92793 -49.41261 39000 ft 519 kts 35°
2026-05-06 06:32 -27.87073 -49.36287 39000 ft 519 kts 35°
2026-05-06 06:33 -27.81331 -49.31302 39000 ft 519 kts 35°
2026-05-06 06:33 -27.75604 -49.26336 39000 ft 519 kts 35°
2026-05-06 06:34 -27.69875 -49.21375 39000 ft 519 kts 35°
2026-05-06 06:34 -27.64129 -49.16406 39000 ft 519 kts 35°
2026-05-06 06:35 -27.58415 -49.11472 39000 ft 519 kts 35°
2026-05-06 06:35 -27.52672 -49.06519 39000 ft 519 kts 35°
2026-05-06 06:36 -27.46909 -49.01555 39000 ft 519 kts 35°
2026-05-06 06:36 -27.41174 -48.96623 39000 ft 519 kts 35°
2026-05-06 06:37 -27.35471 -48.91724 39000 ft 519 kts 35°
2026-05-06 06:37 -27.29694 -48.86768 39000 ft 519 kts 35°
2026-05-06 06:38 -27.23959 -48.81855 39000 ft 519 kts 35°
2026-05-06 06:38 -27.18227 -48.76952 39000 ft 519 kts 35°
2026-05-06 06:39 -27.12477 -48.72039 39000 ft 519 kts 35°
2026-05-06 06:39 -27.06733 -48.67138 39000 ft 519 kts 35°
2026-05-06 06:40 -27.00962 -48.62221 39000 ft 519 kts 35°
2026-05-06 06:40 -26.95238 -48.57349 39000 ft 519 kts 35°
2026-05-06 06:41 -26.89469 -48.52446 39000 ft 519 kts 35°
2026-05-06 06:41 -26.83693 -48.47544 39000 ft 519 kts 35°
2026-05-06 06:42 -26.77963 -48.42686 39000 ft 519 kts 35°
2026-05-06 06:42 -26.72202 -48.37809 39000 ft 519 kts 35°
2026-05-06 06:43 -26.66458 -48.32954 39000 ft 519 kts 35°
2026-05-06 06:43 -26.60702 -48.28093 39000 ft 519 kts 35°
2026-05-06 06:44 -26.54903 -48.23202 39000 ft 519 kts 34°
2026-05-06 06:44 -26.49155 -48.18362 39000 ft 519 kts 34°
2026-05-06 06:45 -26.43400 -48.13521 39000 ft 519 kts 34°
2026-05-06 06:45 -26.37605 -48.08653 39000 ft 519 kts 34°
2026-05-06 06:46 -26.31819 -48.03799 39000 ft 519 kts 34°
2026-05-06 06:46 -26.26064 -47.98977 39000 ft 519 kts 34°
2026-05-06 06:47 -26.20286 -47.94142 39000 ft 519 kts 34°
2026-05-06 06:47 -26.14509 -47.89314 39000 ft 519 kts 34°
2026-05-06 06:48 -26.08752 -47.84508 39000 ft 519 kts 34°
2026-05-06 06:48 -26.02975 -47.79693 39000 ft 519 kts 34°
2026-05-06 06:49 -25.97177 -47.74865 39000 ft 519 kts 34°
2026-05-06 06:49 -25.91417 -47.70076 39000 ft 519 kts 34°
2026-05-06 06:50 -25.85641 -47.65279 39000 ft 519 kts 34°
2026-05-06 06:50 -25.79840 -47.60467 39000 ft 519 kts 34°
2026-05-06 06:51 -25.75029 -47.56481 39000 ft 519 kts 34°
2026-05-06 06:51 -25.69257 -47.51704 39000 ft 519 kts 34°
2026-05-06 06:52 -25.63467 -47.46919 39000 ft 519 kts 34°
2026-05-06 06:52 -25.57658 -47.42123 39000 ft 519 kts 34°
2026-05-06 06:53 -25.51894 -47.37370 39000 ft 518 kts 34°
2026-05-06 06:53 -25.46098 -47.32597 39000 ft 518 kts 34°
2026-05-06 06:54 -25.40316 -47.27842 39000 ft 518 kts 34°
2026-05-06 06:54 -25.34519 -47.23080 39000 ft 518 kts 34°
2026-05-06 06:55 -25.28712 -47.18315 39000 ft 518 kts 34°
2026-05-06 06:55 -25.22905 -47.13556 39000 ft 518 kts 34°
2026-05-06 06:56 -25.17104 -47.08808 39000 ft 518 kts 34°
2026-05-06 06:56 -25.11298 -47.04061 39000 ft 518 kts 34°
2026-05-06 06:57 -25.05495 -46.99323 39000 ft 518 kts 34°
2026-05-06 06:57 -24.99700 -46.94597 39000 ft 518 kts 34°
2026-05-06 06:58 -24.93893 -46.89867 39000 ft 518 kts 34°
2026-05-06 06:58 -24.88078 -46.85135 39000 ft 518 kts 34°
2026-05-06 06:59 -24.82284 -46.80426 39000 ft 518 kts 34°
2026-05-06 06:59 -24.76475 -46.75710 39000 ft 518 kts 34°
2026-05-06 07:00 -24.70682 -46.71012 39000 ft 518 kts 34°
2026-05-06 07:00 -24.64846 -46.66285 39000 ft 518 kts 34°
2026-05-06 07:01 -24.59371 -46.62576 38999 ft 514 kts 22°
2026-05-06 07:01 -24.52616 -46.60102 39003 ft 511 kts 12°
2026-05-06 07:02 -24.45645 -46.58496 39001 ft 509 kts
2026-05-06 07:02 -24.38666 -46.57235 39000 ft 508 kts
2026-05-06 07:03 -24.31682 -46.56063 39000 ft 507 kts
2026-05-06 07:03 -24.24704 -46.54878 39000 ft 507 kts
2026-05-06 07:04 -24.17740 -46.53651 39000 ft 508 kts
2026-05-06 07:04 -24.10749 -46.52371 39000 ft 508 kts
2026-05-06 07:05 -24.03759 -46.51051 39000 ft 508 kts
2026-05-06 07:05 -23.96827 -46.49712 39000 ft 508 kts
2026-05-06 07:06 -23.89844 -46.48345 39000 ft 508 kts
2026-05-06 07:06 -23.82887 -46.46970 39000 ft 508 kts
2026-05-06 07:07 -23.75928 -46.45587 39000 ft 508 kts
2026-05-06 07:07 -23.68991 -46.44205 39000 ft 508 kts
2026-05-06 07:08 -23.62009 -46.42814 39000 ft 508 kts
2026-05-06 07:08 -23.55052 -46.41427 39000 ft 508 kts
2026-05-06 07:09 -23.48092 -46.40040 39000 ft 508 kts
2026-05-06 07:09 -23.41201 -46.38318 38996 ft 512 kts 17°
2026-05-06 07:10 -23.34837 -46.34677 39004 ft 519 kts 30°
2026-05-06 07:10 -23.28956 -46.30108 39001 ft 520 kts 35°
2026-05-06 07:11 -23.23289 -46.25204 39000 ft 520 kts 37°
2026-05-06 07:11 -23.17696 -46.20202 39000 ft 520 kts 37°
2026-05-06 07:12 -23.12151 -46.15227 39000 ft 520 kts 37°
2026-05-06 07:12 -23.06521 -46.10214 39000 ft 520 kts 37°
2026-05-06 07:13 -23.00926 -46.05280 39000 ft 519 kts 37°
2026-05-06 07:13 -22.95277 -46.00348 39000 ft 519 kts 36°
2026-05-06 07:14 -22.89643 -45.95470 39000 ft 519 kts 36°
2026-05-06 07:14 -22.83976 -45.90595 39000 ft 519 kts 36°
2026-05-06 07:15 -22.78287 -45.85729 39000 ft 519 kts 36°
2026-05-06 07:15 -22.72596 -45.80881 39000 ft 519 kts 36°
2026-05-06 07:16 -22.66931 -45.76073 39000 ft 519 kts 36°
2026-05-06 07:16 -22.61228 -45.71245 39000 ft 519 kts 36°
2026-05-06 07:17 -22.55522 -45.66426 39000 ft 519 kts 36°
2026-05-06 07:17 -22.49835 -45.61633 39000 ft 519 kts 36°
2026-05-06 07:18 -22.44140 -45.56842 39000 ft 519 kts 36°
2026-05-06 07:18 -22.38440 -45.52054 39000 ft 519 kts 36°
2026-05-06 07:19 -22.32710 -45.47247 39000 ft 519 kts 36°
2026-05-06 07:19 -22.27012 -45.42473 39000 ft 519 kts 36°
2026-05-06 07:20 -22.22266 -45.38503 39000 ft 519 kts 36°
2026-05-06 07:20 -22.16533 -45.33710 39000 ft 519 kts 36°
2026-05-06 07:21 -22.10829 -45.28948 39000 ft 519 kts 36°
2026-05-06 07:21 -22.05105 -45.24174 39000 ft 519 kts 35°
2026-05-06 07:22 -21.99380 -45.19404 39000 ft 519 kts 35°
2026-05-06 07:22 -21.93692 -45.14671 39000 ft 519 kts 35°
2026-05-06 07:23 -21.87941 -45.09890 39000 ft 519 kts 35°
2026-05-06 07:23 -21.82247 -45.05162 39000 ft 519 kts 35°
2026-05-06 07:24 -21.76494 -45.00390 39000 ft 519 kts 35°
2026-05-06 07:24 -21.70800 -44.95671 39000 ft 519 kts 35°
2026-05-06 07:25 -21.65053 -44.90914 39000 ft 519 kts 35°
2026-05-06 07:25 -21.59334 -44.86185 39000 ft 519 kts 35°
2026-05-06 07:26 -21.53615 -44.81460 39000 ft 519 kts 35°
2026-05-06 07:26 -21.47891 -44.76737 39000 ft 519 kts 35°
2026-05-06 07:27 -21.42145 -44.72000 39000 ft 519 kts 35°
2026-05-06 07:27 -21.36436 -44.67298 39000 ft 519 kts 35°
2026-05-06 07:28 -21.30712 -44.62589 39000 ft 519 kts 35°
2026-05-06 07:28 -21.22103 -44.55515 39000 ft 519 kts 35°
2026-05-06 07:29 -21.16373 -44.50812 39000 ft 519 kts 35°
2026-05-06 07:29 -21.10603 -44.46082 39000 ft 519 kts 35°
2026-05-06 07:30 -21.04872 -44.41388 39000 ft 519 kts 35°
2026-05-06 07:30 -20.99128 -44.36688 39000 ft 519 kts 35°
2026-05-06 07:31 -20.93393 -44.32000 39000 ft 519 kts 35°
2026-05-06 07:31 -20.87651 -44.27311 39000 ft 519 kts 35°
2026-05-06 07:32 -20.81915 -44.22632 39000 ft 519 kts 35°
2026-05-06 07:32 -20.76178 -44.17956 39000 ft 519 kts 35°
2026-05-06 07:33 -20.70446 -44.13290 39000 ft 519 kts 35°
2026-05-06 07:33 -20.64688 -44.08606 39000 ft 519 kts 35°
2026-05-06 07:34 -20.58937 -44.03933 39000 ft 519 kts 35°
2026-05-06 07:34 -20.53196 -43.99272 39000 ft 519 kts 35°
2026-05-06 07:35 -20.47441 -43.94605 39000 ft 519 kts 35°
2026-05-06 07:35 -20.41687 -43.89943 39000 ft 519 kts 35°
2026-05-06 07:36 -20.35924 -43.85278 39000 ft 519 kts 35°
2026-05-06 07:36 -20.30159 -43.80616 39000 ft 519 kts 35°
2026-05-06 07:37 -20.24424 -43.75982 39000 ft 519 kts 35°
2026-05-06 07:37 -20.18664 -43.71334 39000 ft 519 kts 35°
2026-05-06 07:38 -20.12907 -43.66691 39000 ft 519 kts 35°
2026-05-06 07:38 -20.07170 -43.62070 39000 ft 519 kts 35°
2026-05-06 07:39 -20.01400 -43.57425 39000 ft 519 kts 35°
2026-05-06 07:39 -19.95648 -43.52800 39000 ft 519 kts 35°
2026-05-06 07:40 -19.89875 -43.48162 39000 ft 519 kts 35°
2026-05-06 07:40 -19.84113 -43.43538 39000 ft 519 kts 35°
2026-05-06 07:41 -19.78341 -43.38910 39000 ft 519 kts 35°
2026-05-06 07:41 -19.72580 -43.34295 39000 ft 519 kts 34°
2026-05-06 07:42 -19.66798 -43.29668 39000 ft 519 kts 34°
2026-05-06 07:42 -19.61030 -43.25055 39000 ft 519 kts 34°
2026-05-06 07:43 -19.55272 -43.20456 39000 ft 519 kts 34°
2026-05-06 07:43 -19.49490 -43.15841 39000 ft 519 kts 34°
2026-05-06 07:44 -19.43736 -43.11252 39000 ft 519 kts 34°
2026-05-06 07:44 -19.37972 -43.06660 39000 ft 519 kts 34°
2026-05-06 07:45 -19.32189 -43.02057 39000 ft 519 kts 34°
2026-05-06 07:45 -19.26435 -42.97481 39000 ft 519 kts 34°
2026-05-06 07:46 -19.20628 -42.92868 39000 ft 519 kts 34°
2026-05-06 07:46 -19.14888 -42.88311 39000 ft 519 kts 34°
2026-05-06 07:47 -19.09072 -42.83698 39000 ft 519 kts 34°
2026-05-06 07:47 -19.03318 -42.79139 39000 ft 519 kts 34°
2026-05-06 07:48 -18.97554 -42.74576 39000 ft 519 kts 34°
2026-05-06 07:48 -18.91764 -42.69996 39000 ft 519 kts 34°
2026-05-06 07:49 -18.85966 -42.65414 39000 ft 519 kts 34°
2026-05-06 07:49 -18.80211 -42.60870 39000 ft 519 kts 34°
2026-05-06 07:50 -18.74432 -42.56311 39000 ft 519 kts 34°
2026-05-06 07:50 -18.69571 -42.52479 39000 ft 519 kts 34°
2026-05-06 07:51 -18.63810 -42.47942 39000 ft 519 kts 34°
2026-05-06 07:51 -18.58008 -42.43376 39000 ft 519 kts 34°
2026-05-06 07:52 -18.52216 -42.38821 39000 ft 519 kts 34°
2026-05-06 07:52 -18.46428 -42.34275 39000 ft 519 kts 34°
2026-05-06 07:53 -18.40673 -42.29758 39000 ft 519 kts 34°
2026-05-06 07:53 -18.34861 -42.25200 39000 ft 519 kts 34°
2026-05-06 07:54 -18.29078 -42.20668 39000 ft 519 kts 34°
2026-05-06 07:54 -18.23285 -42.16133 39000 ft 519 kts 34°
2026-05-06 07:55 -18.17487 -42.11598 39000 ft 519 kts 34°
2026-05-06 07:55 -18.11705 -42.07079 39000 ft 519 kts 34°
2026-05-06 07:56 -18.05901 -42.02547 39000 ft 519 kts 34°
2026-05-06 07:56 -18.00110 -41.98028 39000 ft 519 kts 34°
2026-05-06 07:57 -17.94280 -41.93484 39000 ft 519 kts 34°
2026-05-06 07:57 -17.88489 -41.88972 39000 ft 519 kts 34°
2026-05-06 07:58 -17.82663 -41.84438 39000 ft 519 kts 34°
2026-05-06 07:58 -17.76879 -41.79940 39000 ft 519 kts 34°
2026-05-06 07:59 -17.71081 -41.75435 39000 ft 519 kts 34°
2026-05-06 07:59 -17.65247 -41.70906 39000 ft 519 kts 34°
2026-05-06 08:00 -17.59480 -41.66432 39000 ft 519 kts 34°
2026-05-06 08:00 -17.53658 -41.61920 39000 ft 519 kts 34°
2026-05-06 08:01 -17.47875 -41.57441 39000 ft 519 kts 34°
2026-05-06 08:01 -17.42059 -41.52941 39000 ft 519 kts 34°
2026-05-06 08:02 -17.36242 -41.48443 39000 ft 519 kts 34°
2026-05-06 08:02 -17.30423 -41.43947 39000 ft 519 kts 34°
2026-05-06 08:03 -17.24612 -41.39461 39000 ft 519 kts 34°
2026-05-06 08:03 -17.18797 -41.34976 39000 ft 519 kts 34°
2026-05-06 08:04 -17.13004 -41.30511 39000 ft 519 kts 34°
2026-05-06 08:04 -17.07170 -41.26018 39000 ft 519 kts 34°
2026-05-06 08:05 -17.01387 -41.21568 39000 ft 519 kts 34°
2026-05-06 08:05 -16.95541 -41.17074 39000 ft 519 kts 34°
2026-05-06 08:06 -16.89736 -41.12614 39000 ft 519 kts 34°
2026-05-06 08:06 -16.83938 -41.08162 39000 ft 519 kts 34°
2026-05-06 08:07 -16.78116 -41.03696 39000 ft 519 kts 34°
2026-05-06 08:07 -16.72288 -40.99229 39000 ft 519 kts 34°
2026-05-06 08:08 -16.66474 -40.94776 39000 ft 519 kts 34°
2026-05-06 08:08 -16.60630 -40.90304 39000 ft 519 kts 34°
2026-05-06 08:09 -16.54829 -40.85867 39000 ft 519 kts 34°
2026-05-06 08:09 -16.49004 -40.81416 39000 ft 519 kts 34°
2026-05-06 08:10 -16.43182 -40.76971 39000 ft 519 kts 34°
2026-05-06 08:10 -16.37358 -40.72528 39000 ft 519 kts 34°
2026-05-06 08:11 -16.31539 -40.68091 39000 ft 519 kts 34°
2026-05-06 08:11 -16.25709 -40.63649 39000 ft 519 kts 34°
2026-05-06 08:12 -16.19847 -40.59187 39000 ft 519 kts 34°
2026-05-06 08:12 -16.14021 -40.54756 39000 ft 519 kts 34°
2026-05-06 08:13 -16.08201 -40.50331 39000 ft 519 kts 34°
2026-05-06 08:13 -16.02376 -40.45907 39000 ft 519 kts 34°
2026-05-06 08:14 -15.96560 -40.41493 39000 ft 519 kts 34°
2026-05-06 08:14 -15.90722 -40.37065 39000 ft 519 kts 34°
2026-05-06 08:15 -15.84877 -40.32636 39000 ft 519 kts 34°
2026-05-06 08:15 -15.79032 -40.28209 39000 ft 519 kts 34°
2026-05-06 08:16 -15.73187 -40.23786 39000 ft 519 kts 34°
2026-05-06 08:16 -15.67363 -40.19382 39000 ft 519 kts 34°
2026-05-06 08:17 -15.61532 -40.14976 39000 ft 519 kts 34°
2026-05-06 08:17 -15.55709 -40.10578 39000 ft 519 kts 34°
2026-05-06 08:18 -15.50858 -40.06918 39000 ft 519 kts 34°
2026-05-06 08:18 -15.44983 -40.02487 39000 ft 519 kts 34°
2026-05-06 08:19 -15.39136 -39.98081 39000 ft 519 kts 33°
2026-05-06 08:19 -15.33331 -39.93710 39000 ft 519 kts 33°
2026-05-06 08:20 -15.27475 -39.89303 39000 ft 519 kts 33°
2026-05-06 08:20 -15.21618 -39.84898 39000 ft 519 kts 33°
2026-05-06 08:21 -15.15789 -39.80518 39000 ft 518 kts 33°
2026-05-06 08:21 -15.09922 -39.76112 39000 ft 518 kts 33°
2026-05-06 08:22 -15.04085 -39.71731 39000 ft 518 kts 33°
2026-05-06 08:22 -14.98237 -39.67346 39000 ft 518 kts 33°
2026-05-06 08:23 -14.92380 -39.62957 39000 ft 518 kts 33°
2026-05-06 08:23 -14.86528 -39.58574 39000 ft 518 kts 33°
2026-05-06 08:24 -14.80698 -39.54212 39000 ft 518 kts 33°
2026-05-06 08:24 -14.74846 -39.49835 39000 ft 518 kts 33°
2026-05-06 08:25 -14.69028 -39.45487 39000 ft 518 kts 33°
2026-05-06 08:25 -14.63152 -39.41099 39000 ft 518 kts 33°
2026-05-06 08:26 -14.57322 -39.36747 39000 ft 518 kts 33°
2026-05-06 08:26 -14.51468 -39.32382 39000 ft 518 kts 33°
2026-05-06 08:27 -14.45600 -39.28008 39000 ft 518 kts 33°
2026-05-06 08:27 -14.39781 -39.23673 39000 ft 518 kts 33°
2026-05-06 08:28 -14.33927 -39.19315 39000 ft 518 kts 33°
2026-05-06 08:28 -14.28067 -39.14956 39000 ft 518 kts 33°
2026-05-06 08:29 -14.22190 -39.10588 39000 ft 518 kts 33°
2026-05-06 08:29 -14.16345 -39.06245 39000 ft 518 kts 33°
2026-05-06 08:30 -14.10501 -39.01907 39000 ft 518 kts 33°
2026-05-06 08:30 -14.04636 -38.97556 39000 ft 518 kts 33°
2026-05-06 08:31 -13.98765 -38.93202 39000 ft 518 kts 33°
2026-05-06 08:31 -13.92918 -38.88870 39000 ft 518 kts 33°
2026-05-06 08:32 -13.87050 -38.84525 39000 ft 518 kts 33°
2026-05-06 08:32 -13.81196 -38.80192 39000 ft 518 kts 33°
2026-05-06 08:33 -13.75329 -38.75853 39000 ft 518 kts 33°
2026-05-06 08:33 -13.69466 -38.71520 39000 ft 518 kts 33°
2026-05-06 08:34 -13.60675 -38.65028 39000 ft 518 kts 33°
2026-05-06 08:35 -13.54829 -38.60713 39000 ft 518 kts 33°
2026-05-06 08:35 -13.48943 -38.56372 39000 ft 518 kts 33°
2026-05-06 08:36 -13.43073 -38.52046 39000 ft 518 kts 33°
2026-05-06 08:36 -13.37221 -38.47736 39000 ft 518 kts 33°
2026-05-06 08:37 -13.31358 -38.43419 39000 ft 518 kts 33°
2026-05-06 08:37 -13.25489 -38.39102 39000 ft 518 kts 33°
2026-05-06 08:38 -13.19615 -38.34783 39000 ft 518 kts 33°
2026-05-06 08:38 -13.13716 -38.30449 39000 ft 518 kts 33°
2026-05-06 08:39 -13.07891 -38.26171 39000 ft 518 kts 33°
2026-05-06 08:39 -13.02009 -38.21854 39000 ft 518 kts 33°
2026-05-06 08:40 -12.96143 -38.17552 39000 ft 518 kts 33°
2026-05-06 08:40 -12.90248 -38.13230 39000 ft 518 kts 33°
2026-05-06 08:41 -12.84377 -38.08929 39000 ft 518 kts 33°
2026-05-06 08:41 -12.78495 -38.04622 39000 ft 518 kts 33°
2026-05-06 08:42 -12.72639 -38.00337 39000 ft 518 kts 33°
2026-05-06 08:42 -12.66766 -37.96042 39000 ft 518 kts 33°
2026-05-06 08:43 -12.60916 -37.91766 39000 ft 518 kts 33°
2026-05-06 08:43 -12.55003 -37.87447 39000 ft 518 kts 33°
2026-05-06 08:44 -12.49163 -37.83183 39000 ft 518 kts 33°
2026-05-06 08:44 -12.43248 -37.78867 39000 ft 518 kts 33°
2026-05-06 08:45 -12.37409 -37.74609 39000 ft 518 kts 33°
2026-05-06 08:45 -12.31503 -37.70305 39000 ft 518 kts 33°
2026-05-06 08:46 -12.25648 -37.66039 39000 ft 518 kts 33°
2026-05-06 08:46 -12.20717 -37.62450 39000 ft 518 kts 33°
2026-05-06 08:47 -12.14865 -37.58191 39000 ft 518 kts 33°
2026-05-06 08:47 -12.08972 -37.53906 39000 ft 518 kts 33°
2026-05-06 08:48 -12.03093 -37.49632 39000 ft 518 kts 33°
2026-05-06 08:48 -11.97191 -37.45344 39000 ft 518 kts 33°
2026-05-06 08:49 -11.91339 -37.41095 39000 ft 518 kts 33°
2026-05-06 08:49 -11.85427 -37.36805 39000 ft 518 kts 33°
2026-05-06 08:50 -11.79554 -37.32546 39000 ft 518 kts 33°
2026-05-06 08:50 -11.73686 -37.28291 39000 ft 518 kts 33°
2026-05-06 08:51 -11.67770 -37.24005 39000 ft 518 kts 33°
2026-05-06 08:51 -11.61891 -37.19748 39000 ft 518 kts 33°
2026-05-06 08:52 -11.56017 -37.15496 39000 ft 518 kts 33°
2026-05-06 08:52 -11.50128 -37.11236 39000 ft 518 kts 33°
2026-05-06 08:53 -11.44226 -37.06970 39000 ft 518 kts 33°
2026-05-06 08:53 -11.38349 -37.02723 39000 ft 518 kts 33°
2026-05-06 08:54 -11.32457 -36.98467 39000 ft 518 kts 33°
2026-05-06 08:54 -11.26576 -36.94222 39000 ft 518 kts 33°
2026-05-06 08:55 -11.20655 -36.89950 39000 ft 518 kts 33°
2026-05-06 08:55 -11.14776 -36.85710 39000 ft 518 kts 33°
2026-05-06 08:56 -11.08912 -36.81484 39000 ft 518 kts 33°
2026-05-06 08:56 -11.02988 -36.77216 39000 ft 518 kts 33°
2026-05-06 08:57 -10.97130 -36.72998 39000 ft 518 kts 33°
2026-05-06 08:57 -10.91235 -36.68756 39000 ft 518 kts 33°
2026-05-06 08:58 -10.85344 -36.64518 39000 ft 518 kts 33°
2026-05-06 08:58 -10.79443 -36.60275 39000 ft 518 kts 33°
2026-05-06 08:59 -10.73573 -36.56057 39000 ft 518 kts 33°
2026-05-06 08:59 -10.67637 -36.51793 39000 ft 518 kts 33°
2026-05-06 09:00 -10.61759 -36.47573 39000 ft 518 kts 33°
2026-05-06 09:00 -10.55854 -36.43336 39000 ft 518 kts 33°
2026-05-06 09:01 -10.49990 -36.39130 39000 ft 518 kts 33°
2026-05-06 09:01 -10.44086 -36.34898 39000 ft 518 kts 33°
2026-05-06 09:02 -10.38194 -36.30675 39000 ft 518 kts 33°
2026-05-06 09:02 -10.32275 -36.26436 39000 ft 518 kts 33°
2026-05-06 09:03 -10.26396 -36.22228 39000 ft 518 kts 33°
2026-05-06 09:03 -10.20463 -36.17982 39000 ft 518 kts 33°
2026-05-06 09:04 -10.14583 -36.13777 39000 ft 518 kts 33°
2026-05-06 09:04 -10.08687 -36.09561 39000 ft 518 kts 33°
2026-05-06 09:05 -10.02769 -36.05332 39000 ft 518 kts 33°
2026-05-06 09:05 -9.96881 -36.01127 39000 ft 518 kts 33°
2026-05-06 09:06 -9.90975 -35.96910 39000 ft 518 kts 33°
2026-05-06 09:06 -9.85068 -35.92696 39000 ft 518 kts 33°
2026-05-06 09:07 -9.79183 -35.88498 39000 ft 518 kts 33°
2026-05-06 09:07 -9.73241 -35.84261 39000 ft 518 kts 33°
2026-05-06 09:08 -9.67372 -35.80079 39000 ft 518 kts 33°
2026-05-06 09:08 -9.61476 -35.75878 39000 ft 518 kts 33°
2026-05-06 09:09 -9.55537 -35.71650 39000 ft 518 kts 33°
2026-05-06 09:09 -9.49648 -35.67458 39000 ft 518 kts 33°
2026-05-06 09:10 -9.43744 -35.63258 39000 ft 518 kts 33°
2026-05-06 09:10 -9.37835 -35.59056 39000 ft 518 kts 33°
2026-05-06 09:11 -9.31928 -35.54858 39000 ft 518 kts 33°
2026-05-06 09:11 -9.26042 -35.50675 39000 ft 518 kts 33°
2026-05-06 09:12 -9.20139 -35.46483 39000 ft 518 kts 33°
2026-05-06 09:12 -9.14200 -35.42266 39000 ft 518 kts 33°
2026-05-06 09:13 -9.08318 -35.38092 39000 ft 518 kts 33°
2026-05-06 09:13 -9.02410 -35.33901 39000 ft 518 kts 33°
2026-05-06 09:14 -8.96483 -35.29699 39000 ft 518 kts 33°
2026-05-06 09:14 -8.90592 -35.25523 39000 ft 518 kts 33°
2026-05-06 09:15 -8.85643 -35.22017 39000 ft 518 kts 33°
2026-05-06 09:15 -8.79718 -35.17820 39000 ft 518 kts 33°
2026-05-06 09:16 -8.73807 -35.13635 39000 ft 518 kts 33°
2026-05-06 09:16 -8.67891 -35.09449 39000 ft 518 kts 33°
2026-05-06 09:17 -8.62016 -35.05292 39000 ft 518 kts 32°
2026-05-06 09:17 -8.56072 -35.01089 39000 ft 518 kts 32°
2026-05-06 09:18 -8.50170 -34.96917 39000 ft 518 kts 32°
2026-05-06 09:18 -8.44280 -34.92755 39000 ft 518 kts 32°
2026-05-06 09:19 -8.38352 -34.88568 39000 ft 518 kts 32°
2026-05-06 09:19 -8.32435 -34.84390 39000 ft 518 kts 32°
2026-05-06 09:20 -8.26511 -34.80208 39000 ft 518 kts 32°
2026-05-06 09:20 -8.20589 -34.76030 39000 ft 518 kts 32°
2026-05-06 09:21 -8.14687 -34.71866 39000 ft 518 kts 32°
2026-05-06 09:21 -8.08762 -34.67689 39000 ft 518 kts 32°
2026-05-06 09:22 -8.02842 -34.63516 39000 ft 518 kts 32°
2026-05-06 09:22 -7.96945 -34.59361 39000 ft 518 kts 32°
2026-05-06 09:23 -7.91005 -34.55176 39000 ft 518 kts 32°
2026-05-06 09:23 -7.85077 -34.51001 39000 ft 518 kts 32°
2026-05-06 09:24 -7.79191 -34.46858 39000 ft 518 kts 32°
2026-05-06 09:24 -7.72991 -34.43114 39001 ft 516 kts 26°
2026-05-06 09:25 -7.66622 -34.39870 39000 ft 515 kts 23°
2026-05-06 09:25 -7.60129 -34.36799 39000 ft 514 kts 22°
2026-05-06 09:26 -7.53586 -34.33790 39000 ft 514 kts 22°
2026-05-06 09:26 -7.47084 -34.30822 39000 ft 514 kts 21°
2026-05-06 09:27 -7.40562 -34.27844 39000 ft 514 kts 22°
2026-05-06 09:27 -7.34042 -34.24856 39000 ft 514 kts 22°
2026-05-06 09:28 -7.27526 -34.21860 39000 ft 514 kts 22°
2026-05-06 09:28 -7.21016 -34.18857 39000 ft 514 kts 22°
2026-05-06 09:29 -7.14503 -34.15846 39000 ft 514 kts 22°
2026-05-06 09:29 -7.07990 -34.12829 39000 ft 514 kts 22°
2026-05-06 09:30 -7.01510 -34.09824 39000 ft 514 kts 22°
2026-05-06 09:30 -6.94969 -34.06787 39000 ft 514 kts 22°
2026-05-06 09:31 -6.88461 -34.03765 39000 ft 514 kts 22°
2026-05-06 09:31 -6.82002 -34.00764 39000 ft 514 kts 22°
2026-05-06 09:32 -6.75465 -33.97727 39000 ft 514 kts 22°
2026-05-06 09:32 -6.69003 -33.94724 39000 ft 514 kts 22°
2026-05-06 09:33 -6.62471 -33.91689 39000 ft 514 kts 22°
2026-05-06 09:33 -6.55965 -33.88667 39000 ft 514 kts 22°
2026-05-06 09:34 -6.49506 -33.85667 39000 ft 514 kts 22°
2026-05-06 09:34 -6.43001 -33.82646 39000 ft 514 kts 22°
2026-05-06 09:35 -6.36488 -33.79621 39000 ft 514 kts 22°
2026-05-06 09:35 -6.29961 -33.76592 39000 ft 514 kts 22°
2026-05-06 09:36 -6.23469 -33.73579 39000 ft 514 kts 22°
2026-05-06 09:36 -6.16965 -33.70561 39000 ft 514 kts 22°
2026-05-06 09:37 -6.10456 -33.67542 39000 ft 514 kts 22°
2026-05-06 09:37 -6.03980 -33.64539 39000 ft 514 kts 22°
2026-05-06 09:38 -5.97475 -33.61523 39000 ft 514 kts 22°
2026-05-06 09:38 -5.90964 -33.58506 39000 ft 514 kts 22°
2026-05-06 09:39 -5.84470 -33.55496 39000 ft 514 kts 22°
2026-05-06 09:39 -5.77965 -33.52483 39000 ft 514 kts 22°
2026-05-06 09:40 -5.71430 -33.49456 39000 ft 514 kts 22°
2026-05-06 09:40 -5.61719 -33.44960 39000 ft 514 kts 22°
2026-05-06 09:41 -5.55173 -33.41930 39000 ft 514 kts 22°
2026-05-06 09:41 -5.48662 -33.38917 39000 ft 514 kts 22°
2026-05-06 09:42 -5.42159 -33.35909 39000 ft 514 kts 22°
2026-05-06 09:42 -5.35667 -33.32906 39000 ft 514 kts 22°
2026-05-06 09:43 -5.32425 -33.31407 39000 ft 514 kts 22°